Wind_Speed
20 20 19 18 17 16 14 13 11 10 8 7 6 6 6 6 6 5 5 5 4 5 5 4 3 4 4 5 5 5 6 7 6 6 5 5 4 4 4 3 3 3 4 5 5 6 6 7 7
22 21 20 20 18 17 15 14 13 11 9 8 7 7 6 5 5 5 4 3 3 4 4 3 3 3 4 4 5 6 7 7 6 5 5 4 4 3 3 3 3 3 4 5 5 5 6 6 7
23 22 22 21 19 18 16 15 13 11 10 9 8 8 7 5 5 4 3 3 2 2 3 3 3 3 4 4 5 6 6 6 6 5 4 4 3 3 3 3 3 4 4 4 5 5 5 5 5
25 24 24 22 20 19 18 16 14 12 11 10 9 8 7 6 5 4 3 2 1 1 2 2 2 3 3 3 5 6 7 6 5 5 4 4 3 3 3 3 3 3 3 4 4 4 5 4 5
27 26 25 23 21 20 19 17 15 13 12 11 10 10 8 7 6 5 4 2 2 1 1 1 2 2 2 3 4 6 7 7 6 5 4 4 3 3 3 3 3 3 3 3 3 4 4 4 4
30 28 27 24 22 21 20 17 16 14 13 12 11 11 10 8 7 6 5 3 3 2 2 2 3 3 3 3 4 6 6 7 6 5 5 4 4 4 4 4 4 4 3 3 3 3 3 3 2
33 30 28 25 24 22 21 18 16 15 14 13 13 12 11 9 8 7 6 5 4 4 4 3 4 4 3 4 5 6 6 7 6 6 5 5 5 5 5 5 5 4 4 4 4 4 3 3 2
35 33 30 27 25 23 23 20 18 16 15 14 13 13 12 10 9 8 7 6 6 5 5 5 5 5 5 4 5 6 7 7 7 6 6 6 6 5 5 6 6 5 5 5 5 5 4 4 4
38 36 32 28 27 26 25 23 20 18 17 16 14 14 13 12 10 9 8 8 7 7 7 6 6 6 6 6 6 7 7 7 7 7 7 7 7 6 6 6 7 7 6 6 6 6 6 6 6
41 39 33 30 30 29 28 25 23 20 18 16 16 15 14 13 12 10 9 9 8 8 8 8 7 7 7 7 7 7 8 8 8 8 8 8 8 8 8 8 8 8 8 8 8 8 8 8 8
44 40 35 33 33 33 31 28 26 23 20 18 18 16 15 14 13 12 11 10 10 9 9 9 9 8 8 8 9 9 9 9 9 10 9 9 9 9 9 9 9 9 9 10 10 10 10 10 11
48 43 39 36 36 36 34 32 29 26 23 22 20 18 17 16 14 13 12 11 11 11 10 10 10 10 10 10 10 11 11 11 11 11 11 11 11 11 11 11 11 11 11 11 12 12 12 13 13
51 46 42 40 40 39 37 35 32 29 26 25 22 20 18 17 16 15 14 13 13 12 12 11 11 11 11 12 12 12 13 12 12 12 13 13 13 13 13 13 13 13 13 13 14 14 15 15 15
53 50 47 45 44 43 41 38 36 30 29 27 25 23 21 19 18 17 16 15 14 14 13 13 13 13 13 13 13 13 14 14 14 14 14 14 14 15 15 15 15 15 15 16 16 17 17 17 18
55 54 52 51 48 46 45 43 38 33 32 30 27 25 23 22 20 19 18 17 16 15 15 15 14 14 14 15 15 15 15 15 16 16 16 16 16 16 16 17 17 17 17 18 18 19 19 20 21
59 58 57 53 51 49 49 45 38 37 35 32 30 28 26 24 22 21 20 19 18 17 17 16 16 16 16 16 16 16 16 16 17 17 17 18 18 18 18 19 19 19 19 20 20 21 22 23 23
63 62 60 56 53 52 52 48 41 40 38 35 33 32 29 27 25 23 23 22 20 19 18 18 17 17 18 17 17 17 17 17 18 18 19 19 19 20 20 21 21 21 22 22 23 24 24 25 26
64 63 61 58 55 55 55 51 45 43 42 39 37 35 33 29 27 27 26 24 23 22 20 20 19 19 19 18 18 19 19 19 20 20 20 21 21 21 22 22 23 23 24 25 26 26 27 28 29
63 62 62 59 57 57 57 55 50 47 47 44 41 38 36 32 31 30 28 26 25 23 23 22 22 22 21 21 20 21 21 21 21 21 22 22 22 23 24 25 25 25 26 27 28 29 30 31 32
65 65 63 61 59 60 61 59 55 52 51 48 45 43 39 36 35 33 31 29 27 26 25 25 25 25 24 24 24 24 23 22 22 22 22 23 24 25 26 27 28 28 29 29 30 31 32 34 35
64 65 63 62 60 61 63 65 60 55 54 52 49 46 43 40 37 36 34 32 31 29 28 27 27 28 27 27 27 26 25 24 24 24 26 26 27 27 27 29 30 30 31 32 33 34 35 36 37
63 61 60 60 60 61 63 68 64 59 57 55 51 49 45 43 40 39 37 35 33 32 32 31 31 30 30 30 28 27 27 26 27 28 29 29 29 30 30 30 31 32 33 34 35 37 38 39 39
59 57 58 58 58 60 62 69 69 62 60 56 53 50 47 45 43 41 40 38 37 36 36 35 34 33 32 31 30 30 29 29 30 31 31 32 33 33 33 33 34 35 36 37 38 40 40 41 42
57 57 57 57 58 62 63 67 73 65 60 56 53 51 49 47 46 45 43 42 41 40 39 37 36 35 34 34 33 32 32 32 33 34 34 35 35 36 36 36 37 37 38 39 41 43 43 44 45
58 58 59 60 61 65 63 67 73 65 59 56 54 52 51 50 49 48 46 45 44 43 42 41 40 38 37 37 36 35 35 35 36 36 37 37 37 38 38 39 39 40 41 42 44 45 46 46 47
60 59 61 62 64 63 64 67 67 63 60 58 55 53 52 52 52 50 48 47 46 45 45 44 43 42 41 40 39 38 38 38 38 38 39 40 40 40 41 42 42 43 44 45 46 48 48 49 50
60 61 60 62 64 65 68 66 65 63 60 57 54 52 51 51 51 51 50 50 49 48 47 47 46 45 44 43 42 42 42 41 40 41 42 42 42 42 43 44 44 45 46 47 48 49 50 51 52
61 60 60 62 65 67 68 67 63 59 57 55 52 50 49 49 50 51 51 51 51 50 50 49 48 48 47 46 46 45 44 44 44 44 44 44 45 45 46 46 47 47 48 49 51 52 52 53 53
59 61 62 63 65 65 67 65 55 54 53 52 51 50 50 51 51 51 52 51 52 52 52 51 50 50 49 49 48 47 47 46 47 47 46 47 47 47 48 48 49 50 50 51 52 53 54 54 55
62 63 64 65 65 65 68 66 53 53 53 52 52 50 50 50 51 51 52 52 53 53 53 52 52 52 51 51 51 50 49 49 49 48 48 49 50 50 50 51 51 51 52 53 54 54 55 55 56
Wind_Direction
232 233 236 238 239 241 243 247 252 257 265 273 286 299 317 338 353 3 13 31 47 67 76 86 99 111 121 121 123 125 126 129 126 128 126 120 109 106 103 98 93 96 102 107 109 107 106 104 104
234 235 236 238 240 242 244 246 249 255 264 272 282 291 305 324 340 353 4 21 45 69 76 79 95 111 124 131 136 134 132 135 135 135 128 118 116 112 110 106 106 110 114 115 115 114 112 109 107
234 235 236 238 240 243 245 247 248 252 259 268 277 285 295 309 325 334 342 359 35 75 83 86 99 114 127 136 147 146 146 146 143 141 138 136 133 125 119 117 120 123 126 126 123 123 119 115 112
233 235 236 237 240 243 247 248 249 251 255 262 269 279 287 294 305 314 317 332 340 79 104 107 117 118 125 141 154 155 157 156 155 153 155 157 155 147 138 137 139 142 145 139 135 134 128 125 122
233 234 236 238 241 243 247 248 251 254 255 257 261 269 278 283 291 296 296 299 290 270 176 156 160 146 135 146 160 165 165 164 162 163 166 166 168 167 161 162 163 162 162 156 150 147 143 142 137
234 235 236 237 241 243 246 247 249 253 253 252 255 262 269 274 281 284 280 273 263 251 233 213 197 183 171 172 176 177 177 176 176 178 185 190 190 191 188 184 184 183 184 181 175 172 169 165 160
236 235 236 236 240 243 246 246 248 250 252 251 253 259 264 266 271 274 271 266 257 247 236 230 221 213 204 195 193 191 190 190 190 193 198 203 203 205 204 199 199 201 205 205 198 199 198 200 210
237 237 236 237 240 244 246 246 247 247 250 251 251 254 258 260 263 266 266 262 256 247 238 233 230 228 223 212 207 205 203 204 205 207 207 208 209 210 210 208 209 214 221 222 219 220 222 231 245
237 238 237 239 242 243 245 247 246 246 249 250 249 249 253 257 258 260 260 258 254 248 241 234 229 231 231 224 217 214 213 213 215 214 215 215 217 217 216 218 221 226 231 233 234 237 242 249 260
238 239 238 239 242 243 244 246 246 246 247 249 248 246 250 254 254 255 255 255 253 249 244 240 234 232 233 232 227 221 221 221 222 222 225 226 224 226 226 228 233 237 240 242 244 248 254 260 268
238 239 239 240 241 243 244 245 246 246 246 247 247 246 247 252 255 254 253 252 251 249 246 244 240 238 236 235 234 228 228 228 230 231 232 234 233 233 233 236 239 243 246 249 251 255 261 266 272
239 239 240 241 241 242 244 244 245 245 245 245 247 248 248 251 253 254 253 250 249 248 248 247 246 244 242 239 238 236 234 234 235 237 239 239 239 240 241 243 244 247 250 254 256 259 264 269 275
239 239 240 240 241 242 244 245 245 244 245 246 247 247 248 250 252 252 253 251 249 248 249 250 250 248 247 245 244 242 240 241 242 242 244 244 244 246 247 250 251 253 255 258 260 263 267 272 277
240 239 239 239 240 242 244 244 244 244 245 247 248 248 248 250 251 251 251 250 249 250 250 252 253 251 250 249 248 248 247 246 247 247 247 248 249 250 251 252 255 257 260 263 264 266 270 274 279
239 240 239 240 241 242 244 243 244 245 245 246 247 248 248 249 250 250 250 251 251 251 252 253 254 254 253 252 250 250 250 250 249 250 250 251 252 254 255 255 257 260 263 266 268 270 272 275 279
239 239 239 239 241 242 244 243 244 245 246 246 247 248 248 249 249 250 250 251 252 252 253 253 254 255 256 255 253 252 252 252 253 253 253 253 254 255 257 258 260 263 266 269 271 273 274 277 279
237 238 239 240 241 243 244 243 242 245 246 246 246 246 247 248 248 250 250 250 251 253 254 255 255 256 257 258 257 256 255 254 254 255 256 256 256 256 258 260 262 264 267 269 272 274 276 278 280
239 240 241 241 242 244 246 245 243 244 245 244 245 245 246 247 248 248 249 250 251 253 254 255 256 257 257 258 258 257 256 254 254 255 257 259 259 259 259 261 263 266 268 270 273 275 277 279 280
243 242 242 243 243 244 245 245 243 243 244 243 244 245 246 247 248 249 249 251 252 253 255 255 256 256 257 257 256 256 255 255 256 257 259 261 262 261 261 262 264 266 268 270 273 276 278 279 281
242 243 243 243 243 243 244 244 243 242 243 243 243 244 246 246 248 250 251 251 251 252 253 254 255 256 257 256 255 256 258 260 260 261 261 262 263 263 262 263 265 267 269 272 274 276 278 280 282
241 243 244 245 244 244 245 244 243 242 243 244 244 245 247 248 249 251 252 252 251 252 253 253 254 255 256 257 258 259 260 261 261 260 259 260 262 263 264 264 267 268 270 272 274 276 278 280 282
241 243 244 245 244 244 245 247 242 242 243 244 246 247 248 249 250 251 252 253 252 251 252 252 253 255 256 258 260 261 260 260 259 259 261 263 265 266 266 267 268 270 271 273 274 276 278 280 282
242 243 244 245 245 246 245 248 243 241 242 244 246 248 249 249 250 251 251 252 252 251 252 253 254 256 257 259 259 260 261 260 260 261 263 264 265 266 267 268 269 270 272 273 275 277 278 281 283
239 241 242 244 245 246 245 248 246 241 242 245 246 248 249 249 249 249 250 251 252 252 253 254 256 256 257 258 258 258 259 259 260 262 262 264 265 266 268 268 269 269 271 272 274 276 278 280 282
235 237 240 242 243 246 246 247 247 244 243 244 245 247 248 249 249 249 249 250 251 252 253 254 255 256 257 257 257 257 258 259 260 261 262 264 266 266 267 267 269 270 271 272 274 276 278 280 282
237 238 240 243 247 248 248 248 248 247 245 245 246 247 248 249 249 250 250 250 250 252 253 254 255 256 256 257 257 257 257 258 260 261 263 264 265 266 266 267 269 270 271 272 274 276 278 280 281
236 237 240 244 247 249 250 250 248 247 248 248 247 247 247 247 248 249 249 250 250 251 252 254 254 255 256 256 257 258 258 259 259 260 261 263 265 266 266 268 269 270 272 273 275 277 278 280 281
235 236 237 240 243 247 250 249 248 248 250 250 249 247 246 245 246 247 248 249 250 250 251 252 253 254 255 256 257 258 259 259 259 259 261 262 263 264 266 267 269 270 272 273 275 277 278 280 281
234 234 236 240 244 246 249 250 247 248 249 249 249 248 246 245 245 246 246 248 249 249 250 251 252 253 254 255 256 257 258 258 259 259 260 261 262 264 265 267 268 270 272 273 275 276 278 279 280
235 235 237 239 243 246 249 249 245 247 248 249 250 250 248 247 246 246 247 247 248 248 249 249 251 252 253 254 255 256 256 257 258 259 260 261 262 263 265 266 268 270 271 273 275 276 278 279 281
Height
5855 5857 5859 5861 5863 5865 5866 5868 5868 5869 5870 5871 5871 5871 5871 5871 5871 5873 5870 5868 5867 5867 5867 5867 5867 5868 5868 5868 5868 5869 5869 5870 5871 5872 5873 5874 5875 5876 5877 5877 5878 5878 5878 5879 5879 5879 5880 5880 5880
5853 5855 5857 5859 5861 5862 5865 5866 5867 5868 5869 5870 5870 5870 5870 5870 5870 5870 5869 5868 5868 5868 5868 5868 5868 5868 5868 5868 5869 5869 5870 5871 5872 5873 5874 5875 5875 5876 5877 5878 5878 5879 5879 5880 5880 5880 5881 5881 5881
5850 5853 5855 5857 5858 5861 5863 5864 5866 5867 5868 5869 5869 5869 5870 5870 5870 5869 5869 5869 5868 5868 5868 5869 5869 5869 5869 5869 5869 5870 5871 5872 5872 5873 5874 5875 5876 5877 5878 5878 5879 5879 5880 5880 5881 5881 5882 5882 5882
5848 5851 5853 5855 5857 5859 5860 5862 5864 5866 5867 5868 5868 5869 5869 5870 5870 5869 5869 5869 5869 5868 5868 5869 5869 5869 5869 5869 5869 5870 5871 5872 5873 5874 5875 5876 5876 5877 5878 5879 5879 5880 5881 5881 5881 5882 5882 5883 5883
5845 5847 5850 5852 5854 5856 5858 5860 5862 5864 5865 5866 5867 5867 5868 5869 5869 5869 5869 5869 5869 5869 5869 5869 5869 5869 5869 5870 5870 5870 5871 5872 5873 5874 5875 5876 5877 5878 5878 5879 5880 5880 5881 5882 5882 5883 5883 5883 5883
5841 5844 5847 5849 5851 5854 5856 5858 5860 5862 5863 5865 5866 5866 5866 5868 5868 5868 5868 5868 5868 5868 5869 5869 5869 5869 5869 5870 5870 5871 5871 5872 5873 5874 5875 5876 5877 5878 5879 5879 5880 5881 5881 5882 5882 5883 5883 5884 5884
5837 5840 5843 5846 5849 5851 5853 5855 5858 5859 5861 5863 5864 5865 5865 5866 5867 5867 5867 5868 5868 5868 5868 5869 5869 5869 5869 5870 5870 5871 5871 5872 5873 5874 5875 5876 5877 5877 5878 5879 5880 5881 5881 5882 5882 5883 5883 5884 5884
5832 5836 5839 5843 5846 5848 5850 5852 5855 5857 5859 5860 5862 5863 5864 5865 5865 5866 5866 5867 5867 5867 5868 5868 5869 5869 5869 5869 5870 5870 5871 5872 5873 5874 5874 5875 5876 5877 5878 5879 5880 5880 5881 5881 5882 5882 5883 5883 5883
5826 5831 5835 5840 5842 5845 5846 5849 5852 5854 5856 5858 5859 5861 5862 5862 5863 5864 5865 5866 5866 5866 5867 5867 5867 5868 5869 5869 5869 5870 5871 5871 5872 5873 5874 5875 5876 5877 5877 5878 5879 5880 5880 5881 5881 5882 5882 5882 5882
5820 5825 5832 5836 5838 5840 5842 5845 5848 5851 5853 5855 5856 5858 5859 5860 5861 5863 5864 5864 5865 5865 5866 5866 5866 5867 5868 5868 5868 5869 5870 5871 5872 5872 5873 5874 5875 5876 5877 5878 5878 5879 5880 5880 5881 5881 5881 5881 5881
5814 5820 5827 5829 5832 5834 5837 5840 5843 5846 5850 5852 5853 5855 5857 5858 5859 5860 5862 5863 5863 5864 5864 5865 5865 5866 5866 5867 5867 5868 5868 5869 5870 5871 5872 5873 5874 5875 5875 5876 5877 5878 5878 5879 5879 5880 5880 5880 5880
5808 5814 5819 5823 5826 5828 5832 5835 5838 5842 5846 5848 5850 5852 5854 5856 5857 5858 5859 5860 5861 5862 5862 5863 5863 5864 5864 5865 5866 5866 5867 5868 5869 5870 5871 5871 5872 5873 5874 5875 5875 5876 5877 5877 5878 5878 5878 5878 5878
5800 5807 5812 5816 5819 5822 5825 5829 5833 5838 5841 5843 5846 5848 5851 5853 5854 5855 5857 5858 5859 5860 5860 5861 5861 5862 5863 5863 5864 5864 5865 5866 5867 5868 5869 5869 5870 5871 5872 5873 5873 5874 5875 5875 5875 5876 5876 5876 5875
5792 5798 5804 5808 5812 5815 5819 5823 5827 5833 5836 5839 5841 5844 5847 5849 5851 5852 5854 5855 5856 5857 5858 5859 5859 5860 5860 5861 5861 5862 5863 5864 5864 5865 5866 5867 5868 5869 5869 5870 5871 5872 5872 5872 5873 5873 5873 5873 5872
5782 5788 5794 5800 5804 5808 5812 5816 5823 5828 5830 5834 5837 5840 5842 5845 5847 5849 5850 5852 5853 5854 5855 5856 5857 5857 5858 5858 5859 5859 5860 5861 5862 5862 5863 5864 5865 5866 5867 5867 5868 5868 5869 5869 5869 5869 5869 5869 5868
5771 5777 5784 5792 5796 5800 5805 5810 5818 5821 5824 5828 5832 5835 5837 5840 5843 5845 5846 5848 5849 5850 5852 5853 5854 5854 5855 5855 5856 5856 5857 5858 5858 5859 5860 5861 5862 5862 5863 5864 5864 5865 5865 5865 5865 5865 5865 5865 5864
5759 5766 5774 5783 5788 5791 5795 5802 5812 5813 5817 5822 5826 5829 5832 5835 5838 5840 5841 5843 5845 5846 5848 5849 5850 5851 5851 5852 5853 5853 5854 5854 5855 5856 5857 5857 5858 5858 5859 5860 5860 5861 5861 5861 5861 5861 5861 5860 5860
5751 5759 5765 5773 5780 5783 5786 5793 5802 5806 5810 5815 5819 5822 5826 5830 5833 5834 5836 5838 5840 5842 5843 5845 5846 5847 5847 5848 5849 5849 5850 5850 5851 5852 5852 5853 5854 5854 5855 5855 5856 5856 5856 5856 5856 5856 5855 5855 5854
5742 5748 5755 5763 5768 5772 5776 5782 5791 5796 5800 5806 5811 5815 5820 5824 5826 5828 5830 5833 5835 5837 5839 5840 5841 5842 5843 5844 5844 5845 5845 5846 5847 5847 5848 5849 5849 5850 5850 5850 5851 5851 5851 5851 5850 5850 5849 5849 5848
5729 5736 5744 5750 5756 5760 5764 5770 5779 5785 5791 5797 5803 5808 5812 5817 5819 5822 5824 5827 5829 5832 5833 5835 5836 5836 5838 5839 5839 5840 5841 5842 5842 5843 5844 5844 5844 5844 5845 5845 5845 5845 5845 5845 5844 5844 5843 5842 5841
5718 5727 5735 5740 5744 5747 5751 5756 5767 5776 5781 5788 5794 5800 5805 5809 5812 5815 5817 5820 5823 5825 5827 5828 5829 5830 5832 5832 5833 5835 5836 5837 5837 5838 5838 5838 5838 5838 5839 5839 5839 5839 5839 5839 5838 5837 5836 5835 5834
5709 5719 5723 5727 5730 5734 5739 5741 5757 5765 5771 5779 5786 5791 5797 5801 5804 5807 5810 5813 5815 5818 5819 5821 5822 5824 5825 5826 5828 5829 5830 5831 5832 5831 5831 5832 5832 5832 5832 5832 5832 5832 5832 5832 5831 5830 5829 5828 5826
5702 5708 5712 5715 5717 5720 5725 5728 5741 5754 5761 5771 5778 5783 5788 5792 5795 5798 5801 5804 5807 5809 5811 5813 5815 5817 5818 5819 5821 5822 5823 5824 5824 5824 5825 5825 5825 5825 5826 5826 5825 5825 5825 5824 5823 5822 5821 5820 5818
5690 5696 5699 5701 5702 5704 5714 5716 5723 5743 5755 5763 5769 5773 5777 5781 5785 5788 5791 5794 5797 5800 5802 5804 5806 5809 5810 5811 5813 5815 5816 5817 5817 5817 5817 5817 5818 5818 5818 5818 5818 5817 5817 5816 5815 5813 5812 5811 5810
5677 5683 5686 5686 5687 5691 5704 5701 5713 5736 5746 5752 5758 5763 5766 5770 5773 5777 5781 5784 5787 5790 5792 5795 5797 5799 5801 5803 5804 5806 5807 5808 5808 5809 5809 5809 5810 5810 5810 5809 5809 5809 5808 5807 5806 5804 5803 5802 5800
5668 5672 5675 5677 5679 5685 5688 5689 5708 5724 5732 5739 5746 5752 5755 5759 5762 5766 5769 5773 5776 5779 5781 5784 5787 5790 5791 5793 5795 5796 5797 5798 5800 5800 5801 5800 5801 5801 5800 5800 5800 5799 5799 5797 5796 5795 5794 5792 5790
5655 5658 5666 5668 5668 5671 5673 5682 5697 5710 5719 5727 5735 5740 5744 5747 5750 5754 5757 5761 5764 5767 5770 5773 5776 5778 5780 5782 5784 5786 5787 5788 5790 5790 5790 5791 5791 5791 5790 5790 5790 5789 5788 5787 5786 5784 5783 5781 5779
5643 5650 5652 5653 5655 5657 5661 5670 5687 5702 5709 5716 5722 5727 5731 5734 5737 5740 5744 5748 5751 5755 5758 5760 5763 5766 5769 5770 5772 5774 5776 5777 5778 5779 5780 5780 5781 5780 5780 5780 5779 5778 5777 5776 5775 5774 5772 5770 5769
5631 5635 5638 5642 5644 5647 5649 5662 5683 5691 5697 5702 5707 5712 5716 5720 5724 5727 5731 5735 5738 5741 5744 5748 5751 5754 5756 5759 5761 5763 5764 5765 5766 5767 5769 5769 5769 5769 5769 5768 5768 5767 5766 5765 5763 5762 5760 5758 5757
5617 5622 5628 5630 5633 5636 5639 5652 5673 5679 5684 5688 5694 5699 5703 5707 5710 5714 5718 5721 5725 5728 5731 5735 5738 5741 5744 5746 5748 5750 5751 5753 5754 5755 5756 5757 5757 5757 5757 5756 5755 5755 5754 5752 5751 5750 5748 5746 5745